Weather History for Warsaw, IN

Change the Weather History Date:

Thursday, June 20, 2013

  Actual Average Record
Temperature  
Mean Temperature 66 °F -  
Max Temperature 80 °F 80 °F 98 °F (1953)
Min Temperature 53 °F 57 °F 43 °F (1970)
Cooling Degree Days 2    
Growing Degree Days 16 (Base 50)    
Moisture  
Dew Point 58 °F    
Average Humidity 70    
Maximum Humidity 94    
Minimum Humidity 51    
Precipitation  
Precipitation 0.00 in - - ()
Sea Level Pressure  
Sea Level Pressure 30.18 in    
Wind  
Wind Speed 0 mph (SSE)    
Max Wind Speed 5 mph    
Max Gust Speed -    
Visibility 10 miles    
Events      
Averages and records for this station are not official NWS values.
T = Trace of Precipitation, MM = Missing Value Source: NWS Daily Summary

Daily Weather History Graph

Daily Weather History Graph

Search for Another Location

Airport:

Trip Planner

Search our weather history database for the weather conditions in past years. The results will help you decide how hot, cold, wet, or windy it might be!

Date:

Astronomy

Jun. 20, 2013 Rise Set
Actual Time 6:10 AM EDT 9:19 PM EDT
Civil Twilight 5:36 AM EDT 9:53 PM EDT
Nautical Twilight 4:52 AM EDT 10:37 PM EDT
Astronomical Twilight 4:01 AM EDT 11:28 PM EDT
Moon 6:20 PM EDT (6/20) 3:37 AM EDT (6/20)
Length of Visible Light 16h 17m
Length of Day
15h 09m
Waxing Gibbous, 89% of the Moon is Illuminated
Jun 20
Waxing Gibbous
Jun 23
Full
Jun 30
Last Quarter
Jul 8
New
Jul 15
First Quarter

Hourly Weather History & Observations

Time (EDT) Temp. Heat Index Dew Point Humidity Pressure Visibility Wind Dir Wind Speed Gust Speed Precip Events Conditions
12:15 AM 60.8 °F - 57.2 °F 88% 30.14 in 10.0 mi Calm Calm - N/A   Clear
12:35 AM 59.0 °F - 57.2 °F 94% 30.14 in 10.0 mi Calm Calm - N/A   Clear
12:55 AM 59.0 °F - 55.4 °F 88% 30.15 in 10.0 mi Calm Calm - N/A   Clear
1:15 AM 59.0 °F - 57.2 °F 94% 30.15 in 10.0 mi Calm Calm - N/A   Clear
1:35 AM 59.0 °F - 57.2 °F 94% 30.15 in 10.0 mi Calm Calm - N/A   Clear
1:55 AM 59.0 °F - 55.4 °F 88% 30.16 in 10.0 mi Calm Calm - N/A   Clear
2:15 AM 59.0 °F - 53.6 °F 82% 30.16 in 10.0 mi Calm Calm - N/A   Clear
2:35 AM 59.0 °F - 51.8 °F 77% 30.16 in 10.0 mi Calm Calm - N/A   Clear
2:55 AM 59.0 °F - 51.8 °F 77% 30.16 in 10.0 mi Calm Calm - N/A   Clear
3:15 AM 59.0 °F - 51.8 °F 77% 30.16 in 10.0 mi Calm Calm - N/A   Clear
3:35 AM 59.0 °F - 51.8 °F 77% 30.16 in 10.0 mi Calm Calm - N/A   Clear
3:55 AM 59.0 °F - 51.8 °F 77% 30.17 in 10.0 mi Calm Calm - N/A   Clear
4:15 AM 57.2 °F - 51.8 °F 82% 30.17 in 10.0 mi Calm Calm - N/A   Scattered Clouds
4:35 AM 55.4 °F - 51.8 °F 88% 30.17 in 10.0 mi Calm Calm - N/A   Mostly Cloudy
4:55 AM 55.4 °F - 51.8 °F 88% 30.17 in 10.0 mi Calm Calm - N/A   Scattered Clouds
5:15 AM 55.4 °F - 51.8 °F 88% 30.17 in 10.0 mi Calm Calm - N/A   Clear
5:35 AM 55.4 °F - 51.8 °F 88% 30.18 in 10.0 mi Calm Calm - N/A   Clear
5:55 AM 53.6 °F - 51.8 °F 94% 30.18 in 10.0 mi Calm Calm - N/A   Clear
6:15 AM 55.4 °F - 51.8 °F 88% 30.18 in 10.0 mi Calm Calm - N/A   Clear
6:35 AM 53.6 °F - 51.8 °F 94% 30.19 in 10.0 mi Calm Calm - N/A   Clear
6:55 AM 55.4 °F - 51.8 °F 88% 30.19 in 10.0 mi Calm Calm - N/A   Clear
7:15 AM 57.2 °F - 53.6 °F 88% 30.19 in 10.0 mi Calm Calm - N/A   Scattered Clouds
7:35 AM 59.0 °F - 53.6 °F 82% 30.19 in 10.0 mi ESE 4.6 mph - N/A   Scattered Clouds
7:55 AM 60.8 °F - 53.6 °F 77% 30.19 in 10.0 mi SE 3.5 mph - N/A   Clear
8:15 AM 62.6 °F - 53.6 °F 72% 30.20 in 10.0 mi Calm Calm - N/A   Clear
8:35 AM 64.4 °F - 55.4 °F 73% 30.20 in 10.0 mi Calm Calm - N/A   Clear
8:55 AM 66.2 °F - 55.4 °F 68% 30.20 in 10.0 mi Calm Calm - N/A   Scattered Clouds
9:15 AM 68.0 °F - 55.4 °F 64% 30.20 in 10.0 mi SE 3.5 mph - N/A   Scattered Clouds
9:35 AM 69.8 °F - 55.4 °F 60% 30.20 in 10.0 mi Calm Calm - N/A   Mostly Cloudy
9:55 AM 69.8 °F - 57.2 °F 64% 30.21 in 10.0 mi Calm Calm - N/A   Overcast
10:15 AM 71.6 °F - 57.2 °F 60% 30.21 in 10.0 mi Calm Calm - N/A   Overcast
10:35 AM 73.4 °F - 59.0 °F 61% 30.21 in 10.0 mi Calm Calm - N/A   Mostly Cloudy
10:55 AM 73.4 °F - 59.0 °F 61% 30.21 in 10.0 mi Calm Calm - N/A   Mostly Cloudy
11:15 AM 73.4 °F - 57.2 °F 57% 30.21 in 10.0 mi Calm Calm - N/A   Mostly Cloudy
11:35 AM 73.4 °F - 59.0 °F 61% 30.21 in 10.0 mi Calm Calm - N/A   Mostly Cloudy
11:55 AM 75.2 °F - 59.0 °F 57% 30.21 in 10.0 mi Calm Calm - N/A   Overcast
12:15 PM 75.2 °F - 59.0 °F 57% 30.21 in 10.0 mi Calm Calm - N/A   Mostly Cloudy
12:35 PM 75.2 °F - 59.0 °F 57% 30.20 in 10.0 mi Calm Calm - N/A   Mostly Cloudy
12:55 PM 75.2 °F - 59.0 °F 57% 30.20 in 10.0 mi Calm Calm - N/A   Overcast
1:15 PM 73.4 °F - 59.0 °F 61% 30.21 in 10.0 mi Calm Calm - N/A   Overcast
1:35 PM 75.2 °F - 60.8 °F 61% 30.21 in 10.0 mi Calm Calm - N/A   Overcast
1:55 PM 75.2 °F - 60.8 °F 61% 30.21 in 10.0 mi Calm Calm - N/A   Overcast
2:15 PM 77.0 °F - 60.8 °F 57% 30.20 in 10.0 mi Calm Calm - N/A   Overcast
2:35 PM 77.0 °F - 60.8 °F 57% 30.20 in 10.0 mi Calm Calm - N/A   Overcast
2:55 PM 77.0 °F - 62.6 °F 61% 30.20 in 10.0 mi Calm Calm - N/A   Overcast
3:15 PM 77.0 °F - 62.6 °F 61% 30.20 in 10.0 mi Calm Calm - N/A   Mostly Cloudy
3:35 PM 78.8 °F - 62.6 °F 57% 30.19 in 10.0 mi Calm Calm - N/A   Scattered Clouds
3:55 PM 78.8 °F - 60.8 °F 54% 30.19 in 10.0 mi South 3.5 mph - N/A   Clear
4:15 PM 78.8 °F - 62.6 °F 57% 30.19 in 10.0 mi Calm Calm - N/A   Clear
4:35 PM 80.6 °F 81.5 °F 60.8 °F 51% 30.18 in 10.0 mi WNW 3.5 mph - N/A   Clear
4:55 PM 80.6 °F 81.5 °F 60.8 °F 51% 30.18 in 10.0 mi Calm Calm - N/A   Clear
5:15 PM 80.6 °F 81.5 °F 60.8 °F 51% 30.18 in 10.0 mi Calm Calm - N/A   Clear
5:35 PM 80.6 °F 81.8 °F 62.6 °F 54% 30.17 in 10.0 mi Calm Calm - N/A   Scattered Clouds
5:55 PM 80.6 °F 81.8 °F 62.6 °F 54% 30.16 in 10.0 mi SSW 3.5 mph - N/A   Clear
6:15 PM 80.6 °F 81.8 °F 62.6 °F 54% 30.16 in 10.0 mi Calm Calm - N/A   Clear
6:35 PM 80.6 °F 81.8 °F 62.6 °F 54% 30.15 in 10.0 mi SSW 3.5 mph - N/A   Clear
6:55 PM 80.6 °F 81.8 °F 62.6 °F 54% 30.15 in 10.0 mi Calm Calm - N/A   Clear
7:15 PM 80.6 °F 81.8 °F 62.6 °F 54% 30.15 in 10.0 mi Calm Calm - N/A   Clear
7:35 PM 80.6 °F 81.8 °F 62.6 °F 54% 30.15 in 10.0 mi Calm Calm - N/A   Clear
7:55 PM 78.8 °F - 62.6 °F 57% 30.15 in 10.0 mi Calm Calm - N/A   Clear
8:15 PM 78.8 °F - 62.6 °F 57% 30.15 in 10.0 mi Calm Calm - N/A   Clear
8:35 PM 77.0 °F - 64.4 °F 65% 30.15 in 10.0 mi Calm Calm - N/A   Clear
8:55 PM 77.0 °F - 64.4 °F 65% 30.14 in 10.0 mi Calm Calm - N/A   Clear
9:15 PM 73.4 °F - 64.4 °F 73% 30.15 in 10.0 mi Calm Calm - N/A   Clear
9:35 PM 73.4 °F - 64.4 °F 73% 30.15 in 10.0 mi Calm Calm - N/A   Clear
9:55 PM 71.6 °F - 64.4 °F 78% 30.15 in 10.0 mi Calm Calm - N/A   Clear
10:15 PM 69.8 °F - 64.4 °F 83% 30.16 in 10.0 mi Calm Calm - N/A   Clear
10:35 PM 69.8 °F - 64.4 °F 83% 30.16 in 10.0 mi Calm Calm - N/A   Clear
10:55 PM 69.8 °F - 64.4 °F 83% 30.17 in 10.0 mi Calm Calm - N/A   Clear
11:15 PM 68.0 °F - 64.4 °F 88% 30.18 in 10.0 mi Calm Calm - N/A   Mostly Cloudy
11:35 PM 69.8 °F - 62.6 °F 78% 30.18 in 10.0 mi Calm Calm - N/A   Scattered Clouds
11:55 PM 69.8 °F - 62.6 °F 78% 30.18 in 10.0 mi ESE 3.5 mph - N/A   Scattered Clouds